Location: Mount Cross
(36.6390°N, 79.4878°W)
Time: 20:33:32
(UTC+00:00)

Courier 1B Rocket - Pass Details

Date: 30 March 2023
Orbit: 920 x 1202 km, 28.2° (Epoch: 05 June)

Event Time Altitude Azimuth Distance (km) Brightness Sun altitude
Rises 02:36:46 0° 262° (W) 3,860 8.7 -34.2°
Reaches altitude 10° 02:39:48 10° 255° (WSW) 2,857 7.8 -34.7°
Enters shadow 02:43:06 25° 235° (SW) 1,909 6.6 -35.2°
Maximum altitude 02:46:03 37° 190° (S) 1,504 - -35.7°
Drops below altitude 10° 02:51:55 10° 125° (SE) 2,682 - -36.6°
Sets 02:54:41 0° 117° (ESE) 3,597 - -37.0°
